[[{"header":{"parameterUnit":"m.s-1","parameterCategory":1,"la1":30.2991,"la2":30.254,"lo1":-89.0895,"lo2":-89.0444,"dy":0.0017,"dx":0.0017,"nx":28,"ny":28,"refTime":"2025-01-25T03:00:00:Z","depth":0,"parameterNumber":2,"parameterNumberName":"U-component_of_WINDS"},"data":[0,0,0,0,0,0,0,0,0,0,0,0,0,0,0,0,0,0,0,0,0,0,0,0,0,0,0,0,0,0,0,0,0,0,0,0,0,0,0,0,0,0,0,0,0,0,0,0,0,0,0,0,0,0,0,0,0,0,-0.8381,-0.8381,0,-0.8433,-0.8434,-0.8434,-0.8477,-0.8478,-0.8478,-0.8479,-0.8534,-0.8535,-0.8536,0,0,0,0,0,0,0,0,0,0,0,0,0,-0.832,-0.8321,-0.8381,-0.8382,-0.8382,-0.8433,-0.8434,-0.8435,-0.8477,-0.8478,-0.8478,-0.8479,-0.8533,-0.8534,-0.8536,0,0,0,0,0,0,0,0,0,0,0,0,0,-0.8357,-0.8321,-0.8381,-0.841,-0.8413,-0.8433,-0.8434,-0.8435,-0.8477,-0.8478,-0.8478,-0.8479,-0.8533,-0.8534,-0.8536,-0.8532,0,0,-0.8541,-0.8541,0,0,0,0,0,0,0,0,-0.8355,-0.8359,-0.8405,-0.8408,-0.8411,-0.8449,-0.8433,-0.8468,-0.8477,-0.8453,-0.8479,-0.8479,-0.8505,-0.8509,-0.8517,-0.8535,-0.8537,-0.8541,-0.8542,-0.8543,-0.8543,0,0,0,0,0,0,0,-0.8352,-0.8357,-0.8402,-0.8405,-0.8409,-0.8421,-0.8427,-0.8439,-0.8475,-0.8455,-0.8458,-0.8464,-0.8507,-0.8516,-0.8519,-0.8538,-0.8541,-0.8542,-0.8543,-0.8544,-0.8557,-0.8556,0,0,0,0,0,0,-0.8345,-0.8354,-0.84,-0.8403,-0.8384,-0.8421,-0.8428,-0.8436,-0.8475,-0.8481,-0.8463,-0.8465,-0.8513,-0.8517,-0.8521,-0.852,-0.8543,-0.8544,-0.8545,-0.8558,-0.8557,-0.8556,0,0,0,0,0,0,-0.8343,-0.8348,-0.8398,-0.838,-0.8387,-0.8421,-0.8431,-0.8437,-0.8446,-0.8481,-0.8487,-0.8465,-0.8513,-0.8519,-0.853,-0.8523,-0.8545,-0.8546,-0.8558,-0.8557,-0.8557,-0.8518,0,0,0,0,0,0,-0.8341,-0.8348,-0.8346,-0.8379,-0.8388,-0.8405,-0.843,-0.8438,-0.8448,-0.8452,-0.8485,-0.8491,-0.8514,-0.8527,-0.8531,-0.8526,-0.8547,-0.8559,-0.8558,-0.8557,-0.852,-0.8516,-0.8513,0,0,0,0,0,-0.8339,-0.8333,-0.8346,-0.8351,-0.8386,-0.8404,-0.8409,-0.8436,-0.8448,-0.8447,-0.8469,-0.849,-0.8523,-0.8528,-0.8533,-0.8527,-0.856,-0.8558,-0.8557,-0.8522,-0.8517,-0.8513,0,0,0,0,0,0,-0.8298,-0.8338,-0.8352,-0.8357,-0.8377,-0.8411,-0.8411,-0.843,-0.8447,-0.845,-0.8483,-0.849,-0.8497,-0.8513,-0.8518,-0.8527,-0.8544,-0.8544,-0.8516,-0.8511,-0.8508,-0.8504,-0.8549,0,0,0,0,0,-0.829,-0.83,-0.8335,-0.8336,-0.8345,-0.8376,-0.8385,-0.8404,-0.8426,-0.8435,-0.8458,-0.8479,-0.8494,-0.8504,-0.852,-0.8523,-0.8531,-0.8522,-0.8518,-0.8515,-0.8514,-0.8518,-0.8515,-0.8552,-0.8552,-0.8552,0,0,-0.8273,-0.8296,-0.83,-0.8328,-0.8346,-0.8357,-0.8383,-0.8393,-0.8402,-0.8436,-0.8448,-0.8466,-0.8492,-0.8499,-0.8503,-0.8513,-0.8506,-0.8513,-0.851,-0.8512,-0.8517,-0.8513,-0.851,-0.8551,-0.8551,-0.8551,0,0,-0.8247,-0.8265,-0.8268,-0.8285,-0.8312,-0.8333,-0.8333,-0.8365,-0.8378,-0.839,-0.8417,-0.8428,-0.8453,-0.8471,-0.8483,-0.8465,-0.8485,-0.8469,-0.8449,-0.8453,-0.845,-0.8448,-0.8442,-0.844,-0.8469,-0.8468,-0.8468,0,-0.8223,-0.8239,-0.8268,-0.8276,-0.8288,-0.832,-0.8324,-0.8339,-0.837,-0.8377,-0.8388,-0.8421,-0.8441,-0.8453,-0.8448,-0.8457,-0.846,-0.8466,-0.8448,-0.8446,-0.8444,-0.8439,-0.8437,-0.8466,-0.8467,-0.8467,-0.8467,0,-0.8208,-0.822,-0.8219,-0.8247,-0.8259,-0.8265,-0.8295,-0.8304,-0.8322,-0.8343,-0.8355,-0.838,-0.8402,-0.8406,-0.8424,-0.8421,-0.8426,-0.8442,-0.846,-0.8438,-0.8434,-0.8432,-0.8464,-0.8464,-0.8465,-0.8465,0,0,-0.8158,-0.8202,-0.8202,-0.8215,-0.8247,-0.8257,-0.8265,-0.8286,-0.8293,-0.8313,-0.8322,-0.8343,-0.8358,-0.8371,-0.8392,-0.8395,-0.838,-0.841,-0.8411,-0.8404,-0.838,-0.8368,-0.8365,-0.8393,-0.8393,-0.8393,-0.8378,0,-0.8138,-0.8154,-0.818,-0.8188,-0.8199,-0.823,-0.8237,-0.8258,-0.8277,-0.829,-0.8312,-0.8326,-0.8344,-0.8353,-0.8358,-0.8381,-0.8376,-0.8382,-0.8402,-0.8403,-0.8395,-0.8363,-0.8351,-0.8335,-0.8376,-0.8376,-0.8376,0,-0.8117,-0.8135,-0.8143,-0.8175,-0.8181,-0.8187,-0.8209,-0.822,-0.8245,-0.8259,-0.8274,-0.8297,-0.8308,-0.8324,-0.8341,-0.8345,-0.8355,-0.8367,-0.8368,-0.8371,-0.8388,-0.8366,-0.8331,-0.8329,-0.8373,-0.8374,-0.8374,0,-0.808,-0.8107,-0.8116,-0.8126,-0.8163,-0.8167,-0.8182,-0.8207,-0.8219,-0.8238,-0.8246,-0.8266,-0.8278,-0.8294,-0.8321,-0.833,-0.8335,-0.8354,-0.8348,-0.8347,-0.8348,-0.8348,-0.8314,-0.8353,-0.8353,-0.8353,-0.8353,0,-0.8056,-0.806,-0.81,-0.8105,-0.8111,-0.8142,-0.8147,-0.8166,-0.8188,-0.8198,-0.8226,-0.8235,-0.8271,-0.8285,-0.8307,-0.8318,-0.8323,-0.8335,-0.8341,-0.8333,-0.8331,-0.834,-0.8342,-0.8353,-0.8353,-0.8353,-0.8353,0,-0.8016,-0.8043,-0.8055,-0.8088,-0.8097,-0.81,-0.813,-0.8137,-0.8158,-0.817,-0.8175,-0.8208,-0.8226,-0.8255,-0.8281,-0.8296,-0.8304,-0.8313,-0.8295,-0.8299,-0.8292,-0.8292,-0.8264,-0.8262,-0.8301,-0.83,-0.83,0,-0.7999,-0.8003,-0.8037,-0.8045,-0.806,-0.8073,-0.8085,-0.8116,-0.8127,-0.8155,-0.8159,-0.8179,-0.8196,-0.8223,-0.8251,-0.8271,-0.8282,-0.827,-0.8285,-0.8277,-0.8282,-0.8282,-0.8283,-0.8267,-0.8266,-0.8266,-0.8265,0,-0.7965,-0.7979,-0.7994,-0.8014,-0.8027,-0.8045,-0.8064,-0.8069,-0.8104,-0.8116,-0.8134,-0.8147,-0.8174,-0.8194,-0.8218,-0.8236,-0.8257,-0.826,-0.826,-0.8253,-0.8242,-0.8249,-0.8286,-0.8261,-0.8261,-0.8262,-0.8262,-0.8262,-0.7937,-0.7942,-0.7967,-0.7984,-0.8001,-0.8018,-0.8027,-0.8049,-0.8064,-0.8088,-0.8105,-0.8123,-0.8148,-0.8183,-0.8199,-0.8214,-0.8223,-0.8223,-0.8223,-0.8223,-0.822,-0.8239,-0.8218,-0.8219,-0.8219,-0.8219,-0.8219,0,-0.7906,-0.7923,-0.7938,-0.7964,-0.7977,-0.7995,-0.8017,-0.8027,-0.8042,-0.8063,-0.808,-0.8101,-0.8121,-0.8149,-0.8171,-0.8178,-0.8188,-0.8183,-0.8183,-0.8187,-0.821,-0.8208,-0.8174,-0.8174,-0.8174,-0.8174,-0.8174,-0.8174,-0.7891,-0.7901,-0.7917,-0.7937,-0.7955,-0.7971,-0.7983,-0.7999,-0.8017,-0.8039,-0.8055,-0.8073,-0.8098,-0.8122,-0.8141,-0.8149,-0.8157,-0.8148,-0.8159,-0.8181,-0.8185,-0.8189,-0.8187,-0.8149,-0.8149,-0.8135,-0.8135,-0.8135]},{"header":{"parameterUnit":"m.s-1","parameterCategory":1,"la1":30.2991,"la2":30.254,"lo1":-89.0895,"lo2":-89.0444,"dy":0.0017,"dx":0.0017,"nx":28,"ny":28,"refTime":"2025-01-25T03:00:00:Z","depth":0,"parameterNumber":3,"parameterNumberName":"V-component_of_WINDS"},"data":[0,0,0,0,0,0,0,0,0,0,0,0,0,0,0,0,0,0,0,0,0,0,0,0,0,0,0,0,0,0,0,0,0,0,0,0,0,0,0,0,0,0,0,0,0,0,0,0,0,0,0,0,0,0,0,0,0,0,2.3844,2.3846,0,2.4037,2.404,2.4042,2.4021,2.4018,2.4015,2.4012,2.421,2.4218,2.4226,0,0,0,0,0,0,0,0,0,0,0,0,0,2.3455,2.3463,2.3844,2.3846,2.3849,2.4037,2.404,2.4042,2.4021,2.4018,2.4014,2.4011,2.4207,2.4217,2.4227,0,0,0,0,0,0,0,0,0,0,0,0,0,2.3634,2.3465,2.3843,2.3861,2.3865,2.4037,2.404,2.4043,2.4022,2.4018,2.4013,2.4009,2.4204,2.4216,2.4228,2.4395,0,0,2.4265,2.427,0,0,0,0,0,0,0,0,2.3624,2.3648,2.3856,2.386,2.3864,2.4,2.3975,2.4161,2.4023,2.3962,2.4012,2.4007,2.4144,2.4161,2.4207,2.4404,2.4413,2.4266,2.4274,2.4279,2.4282,0,0,0,0,0,0,0,2.3612,2.364,2.392,2.3859,2.3864,2.3859,2.3879,2.401,2.4077,2.3967,2.3966,2.3989,2.4145,2.4195,2.4212,2.4416,2.4266,2.4277,2.4284,2.4289,2.4758,2.4763,0,0,0,0,0,0,2.3595,2.363,2.3914,2.3926,2.373,2.387,2.3892,2.3961,2.4075,2.4088,2.3993,2.3988,2.4177,2.4197,2.4218,2.4421,2.4279,2.429,2.4297,2.4753,2.476,2.4765,0,0,0,0,0,0,2.3587,2.3621,2.3906,2.3778,2.3814,2.3881,2.3959,2.3968,2.4018,2.4095,2.4106,2.4032,2.4174,2.4201,2.4351,2.4428,2.4296,2.4307,2.4747,2.4755,2.4762,2.4828,0,0,0,0,0,0,2.3576,2.3618,2.3682,2.3779,2.3821,2.4037,2.3964,2.3975,2.4039,2.4034,2.4134,2.4147,2.4173,2.4333,2.4363,2.4442,2.4316,2.4741,2.4751,2.476,2.482,2.4837,2.4853,0,0,0,0,0,2.3562,2.3693,2.3686,2.372,2.3903,2.4041,2.4065,2.4092,2.4045,2.411,2.4159,2.4143,2.4414,2.4348,2.4382,2.4466,2.4736,2.4748,2.4759,2.4812,2.4834,2.4852,0,0,0,0,0,0,2.3604,2.3707,2.3699,2.3866,2.3945,2.4037,2.412,2.4114,2.4208,2.4199,2.4228,2.4251,2.4402,2.4449,2.4374,2.4633,2.4569,2.4588,2.4598,2.4619,2.4635,2.4621,2.4326,0,0,0,0,0,2.3633,2.3736,2.382,2.3959,2.3999,2.4053,2.4114,2.4128,2.4211,2.4244,2.4304,2.4385,2.4488,2.4556,2.4655,2.4826,2.4847,2.49,2.4916,2.4929,2.4946,2.5039,2.5063,2.4803,2.4803,2.4803,0,0,2.3693,2.3762,2.3826,2.3969,2.4032,2.4139,2.4081,2.4197,2.4276,2.4262,2.4407,2.4454,2.4546,2.4706,2.478,2.475,2.5022,2.4944,2.4954,2.4964,2.5054,2.5078,2.51,2.4811,2.481,2.4809,0,0,2.3858,2.392,2.4043,2.4106,2.4202,2.4237,2.4266,2.4359,2.439,2.4536,2.4527,2.4621,2.4799,2.4865,2.4921,2.5109,2.5098,2.514,2.5227,2.5317,2.5338,2.5356,2.5424,2.5447,2.5156,2.5156,2.5157,0,2.3921,2.4081,2.4106,2.4223,2.4286,2.4278,2.4402,2.4462,2.4585,2.4629,2.4593,2.4815,2.4877,2.5052,2.5098,2.5144,2.5178,2.513,2.5333,2.5352,2.5369,2.5433,2.5459,2.5161,2.516,2.516,2.516,0,2.4154,2.4265,2.4353,2.4471,2.4544,2.4664,2.4707,2.4778,2.4785,2.4823,2.4971,2.5044,2.5158,2.52,2.5208,2.5377,2.5356,2.5326,2.5262,2.5398,2.5459,2.5484,2.5168,2.5166,2.5165,2.5163,0,0,2.4353,2.4482,2.4514,2.4568,2.4672,2.4758,2.4876,2.4987,2.5047,2.5132,2.5232,2.5382,2.5355,2.5419,2.5434,2.5514,2.5658,2.5475,2.5477,2.5506,2.5848,2.587,2.5899,2.565,2.5655,2.5659,2.5841,0,2.4528,2.4738,2.4764,2.4951,2.5053,2.5046,2.5149,2.5224,2.5262,2.5354,2.5397,2.5502,2.5459,2.5497,2.5575,2.5624,2.5727,2.5611,2.5744,2.5749,2.5722,2.5931,2.5955,2.6123,2.5865,2.5869,2.5872,0,2.4761,2.4852,2.5049,2.5138,2.5182,2.5274,2.5377,2.5466,2.555,2.5572,2.5643,2.5648,2.577,2.57,2.5869,2.5789,2.5845,2.5877,2.5884,2.5898,2.5819,2.5951,2.6177,2.6203,2.5909,2.5906,2.5904,0,2.4886,2.5058,2.5198,2.5244,2.5351,2.5416,2.5463,2.5543,2.5607,2.5697,2.574,2.5842,2.5899,2.5979,2.6011,2.5957,2.6178,2.611,2.62,2.6199,2.6248,2.6245,2.6487,2.6282,2.6282,2.6281,2.6281,0,2.508,2.5201,2.5255,2.5342,2.5477,2.5504,2.5637,2.5682,2.5752,2.5847,2.5846,2.5934,2.5971,2.6066,2.6091,2.6227,2.6252,2.6274,2.628,2.6275,2.6272,2.6313,2.6302,2.6288,2.6287,2.6285,2.6284,0,2.5244,2.5285,2.5437,2.5525,2.555,2.5646,2.5721,2.5805,2.5841,2.5961,2.599,2.6048,2.6159,2.6198,2.6333,2.6351,2.6508,2.6504,2.648,2.6482,2.6569,2.6561,2.6847,2.6886,2.6654,2.6657,2.6658,0,2.5365,2.5458,2.5556,2.5619,2.5669,2.5771,2.5836,2.5866,2.5935,2.6037,2.6108,2.6218,2.6308,2.6485,2.6539,2.6642,2.6641,2.6733,2.6656,2.6648,2.6643,2.6637,2.6647,2.6748,2.6751,2.6753,2.6754,0,2.5577,2.5592,2.5687,2.5789,2.5867,2.5949,2.6028,2.608,2.6121,2.6198,2.6312,2.6381,2.6518,2.6628,2.6733,2.6782,2.6776,2.6778,2.6804,2.6801,2.6784,2.6795,2.6521,2.6772,2.677,2.6769,2.6768,2.6767,2.5724,2.5806,2.5887,2.5993,2.6055,2.6129,2.6211,2.6257,2.6352,2.6467,2.6478,2.66,2.668,2.6821,2.6874,2.697,2.6945,2.6982,2.6992,2.7002,2.7009,2.6767,2.6989,2.6989,2.6988,2.6988,2.6988,0,2.5936,2.5987,2.6084,2.6194,2.6277,2.6263,2.6349,2.642,2.6527,2.6602,2.6691,2.682,2.6926,2.6988,2.7094,2.7158,2.7158,2.7185,2.7181,2.7193,2.7025,2.6992,2.7184,2.7184,2.7184,2.7183,2.7183,2.7183,2.6056,2.6194,2.6219,2.6387,2.6438,2.6557,2.6608,2.6676,2.6736,2.6881,2.6969,2.7008,2.7078,2.7188,2.7285,2.73,2.7339,2.7369,2.7382,2.7225,2.7205,2.7185,2.7155,2.7377,2.7378,2.7542,2.7544,2.7545]}]]